| time (UTC) | temp C | wind direction | speed KPH | gust KPH | rain 1hr cm | rain 24hr cm | rain mn cm | humidity % | barometer mb |
| 20260504215848 | 26 | 235 | 3.2 | 3.2 | 0.00 | 0.00 | 0.00 | 41 | 1018.9 |
| 20260504215344 | 26 | 220 | 1.6 | 1.6 | 0.00 | 0.00 | 0.00 | 42 | 1018.7 |
| 20260504214840 | 26 | 246 | 4.8 | 4.8 | 0.00 | 0.00 | 0.00 | 40 | 1018.7 |
| 20260504214337 | 25 | 163 | 3.2 | 4.8 | 0.00 | 0.00 | 0.00 | 39 | 1018.9 |
| 20260504213834 | 26 | 262 | 3.2 | 4.8 | 0.00 | 0.00 | 0.00 | 40 | 1018.7 |
| 20260504213330 | 26 | 273 | 3.2 | 3.2 | 0.00 | 0.00 | 0.00 | 40 | 1019.1 |
| 20260504212827 | 26 | 293 | 3.2 | 4.8 | 0.00 | 0.00 | 0.00 | 40 | 1018.9 |
| 20260504212323 | 26 | 323 | 0.0 | 1.6 | 0.00 | 0.00 | 0.00 | 42 | 1018.8 |
| 20260504211821 | 26 | 277 | 4.8 | 8.0 | 0.00 | 0.00 | 0.00 | 41 | 1019.0 |
| 20260504211317 | 26 | 39 | 1.6 | 3.2 | 0.00 | 0.00 | 0.00 | 41 | 1019.1 |
| 20260504210815 | 26 | 268 | 3.2 | 3.2 | 0.00 | 0.00 | 0.00 | 43 | 1018.8 |
| 20260504210312 | 26 | 278 | 0.0 | 1.6 | 0.00 | 0.00 | 0.00 | 41 | 1019.0 |
| 20260504205809 | 26 | 159 | 4.8 | 4.8 | 0.00 | 0.00 | 0.00 | 40 | 1019.0 |
| 20260504205306 | 26 | 262 | 0.0 | 1.6 | 0.00 | 0.00 | 0.00 | 39 | 1019.0 |
| 20260504204804 | 26 | 244 | 1.6 | 1.6 | 0.00 | 0.00 | 0.00 | 38 | 1019.3 |
| 20260504204303 | 26 | 278 | 4.8 | 8.0 | 0.00 | 0.00 | 0.00 | 39 | 1019.2 |
| 20260504203802 | 26 | 264 | 4.8 | 4.8 | 0.00 | 0.00 | 0.00 | 40 | 1019.3 |
| 20260504203258 | 26 | 315 | 0.0 | 0.0 | 0.00 | 0.00 | 0.00 | 43 | 1019.2 |
| 20260504202753 | 25 | 293 | 1.6 | 3.2 | 0.00 | 0.00 | 0.00 | 41 | 1019.2 |
| 20260504202250 | 26 | 15 | 1.6 | 1.6 | 0.00 | 0.00 | 0.00 | 43 | 1019.3 |
| 20260504201747 | 25 | 268 | 1.6 | 1.6 | 0.00 | 0.00 | 0.00 | 42 | 1019.5 |
| 20260504201244 | 25 | 247 | 0.0 | 1.6 | 0.00 | 0.00 | 0.00 | 44 | 1019.3 |
| 20260504200742 | 25 | 354 | 1.6 | 1.6 | 0.00 | 0.00 | 0.00 | 43 | 1019.6 |
| 20260504200238 | 26 | 284 | 1.6 | 1.6 | 0.00 | 0.00 | 0.00 | 43 | 1019.1 |
| 20260504195735 | 26 | 76 | 0.0 | 0.0 | 0.00 | 0.00 | 0.00 | 43 | 1019.5 |
| 20260504195230 | 26 | 10 | 1.6 | 1.6 | 0.00 | 0.00 | 0.00 | 42 | 1019.6 |
| 20260504194728 | 26 | 132 | 3.2 | 3.2 | 0.00 | 0.00 | 0.00 | 41 | 1019.6 |
| 20260504194224 | 25 | 234 | 3.2 | 3.2 | 0.00 | 0.00 | 0.00 | 43 | 1019.8 |
| 20260504193720 | 26 | 240 | 3.2 | 4.8 | 0.00 | 0.00 | 0.00 | 41 | 1019.9 |
| 20260504193218 | 26 | 80 | 8.0 | 9.7 | 0.00 | 0.00 | 0.00 | 38 | 1020.0 |
| 20260504192716 | 26 | 350 | 1.6 | 1.6 | 0.00 | 0.00 | 0.00 | 41 | 1020.0 |
| 20260504192214 | 26 | 256 | 4.8 | 8.0 | 0.00 | 0.00 | 0.00 | 42 | 1020.1 |
| 20260504191712 | 26 | 267 | 3.2 | 4.8 | 0.00 | 0.00 | 0.00 | 41 | 1020.1 |
| 20260504191209 | 26 | 336 | 1.6 | 3.2 | 0.00 | 0.00 | 0.00 | 43 | 1020.3 |
| 20260504190704 | 25 | 235 | 0.0 | 0.0 | 0.00 | 0.00 | 0.00 | 44 | 1020.1 |
| 20260504190201 | 25 | 80 | 3.2 | 4.8 | 0.00 | 0.00 | 0.00 | 42 | 1020.3 |
| 20260504185657 | 26 | 176 | 3.2 | 3.2 | 0.00 | 0.00 | 0.00 | 45 | 1020.4 |
| 20260504185153 | 26 | 27 | 4.8 | 9.7 | 0.00 | 0.00 | 0.00 | 41 | 1020.6 |
| 20260504184650 | 26 | 235 | 1.6 | 3.2 | 0.00 | 0.00 | 0.00 | 45 | 1020.6 |
| 20260504184145 | 25 | 277 | 1.6 | 1.6 | 0.00 | 0.00 | 0.00 | 42 | 1020.7 |
| 20260504183642 | 25 | 286 | 0.0 | 0.0 | 0.00 | 0.00 | 0.00 | 41 | 1020.6 |
| 20260504183139 | 25 | 275 | 1.6 | 1.6 | 0.00 | 0.00 | 0.00 | 46 | 1020.7 |
| 20260504182637 | 25 | 300 | 1.6 | 1.6 | 0.00 | 0.00 | 0.00 | 49 | 1020.7 |
| 20260504182134 | 25 | 184 | 3.2 | 3.2 | 0.00 | 0.00 | 0.00 | 44 | 1021.0 |
| 20260504181632 | 25 | 269 | 4.8 | 8.0 | 0.00 | 0.00 | 0.00 | 46 | 1021.1 |
| 20260504181129 | 25 | 303 | 3.2 | 3.2 | 0.00 | 0.00 | 0.00 | 46 | 1020.9 |
| 20260504180629 | 25 | 211 | 4.8 | 8.0 | 0.00 | 0.00 | 0.00 | 47 | 1021.0 |
| 20260504180127 | 23 | 226 | 3.2 | 4.8 | 0.00 | 0.00 | 0.00 | 48 | 1021.1 |
| 20260504175623 | 24 | 253 | 1.6 | 3.2 | 0.00 | 0.00 | 0.00 | 46 | 1021.2 |
| 20260504175120 | 25 | 301 | 4.8 | 4.8 | 0.00 | 0.00 | 0.00 | 46 | 1021.3 |
| 20260504174619 | 25 | 276 | 3.2 | 3.2 | 0.00 | 0.00 | 0.00 | 47 | 1021.3 |
| 20260504174114 | 24 | 333 | 3.2 | 3.2 | 0.00 | 0.00 | 0.00 | 46 | 1021.3 |
| 20260504173612 | 24 | 169 | 0.0 | 1.6 | 0.00 | 0.00 | 0.00 | 48 | 1021.5 |
| 20260504173109 | 23 | 104 | 1.6 | 1.6 | 0.00 | 0.00 | 0.00 | 47 | 1021.6 |
| 20260504172605 | 25 | 77 | 4.8 | 8.0 | 0.00 | 0.00 | 0.00 | 46 | 1021.4 |
| 20260504172102 | 25 | 273 | 1.6 | 1.6 | 0.00 | 0.00 | 0.00 | 46 | 1021.6 |
| 20260504171558 | 25 | 250 | 1.6 | 1.6 | 0.00 | 0.00 | 0.00 | 46 | 1021.5 |
| 20260504171056 | 25 | 260 | 3.2 | 3.2 | 0.00 | 0.00 | 0.00 | 46 | 1021.7 |
| 20260504170551 | 24 | 326 | 1.6 | 1.6 | 0.00 | 0.00 | 0.00 | 47 | 1021.8 |
| 20260504150930 | 21 | 28 | 1.6 | 1.6 | 0.00 | 0.00 | 0.00 | 56 | 1022.7 |
| 20260504150426 | 21 | 253 | 4.8 | 4.8 | 0.00 | 0.00 | 0.00 | 54 | 1022.7 |
| 20260504140853 | 17 | 284 | 1.6 | 1.6 | 0.00 | 0.00 | 0.00 | 68 | 1023.3 |
| 20260504140349 | 17 | 354 | 0.0 | 0.0 | 0.00 | 0.00 | 0.00 | 71 | 1023.1 |
| 20260504130818 | 11 | 264 | 0.0 | 0.0 | 0.00 | 0.00 | 0.00 | 91 | 1023.4 |
| 20260504130314 | 11 | 263 | 0.0 | 0.0 | 0.00 | 0.00 | 0.00 | 93 | 1023.4 |
| 20260504120237 | 7 | 263 | 0.0 | 0.0 | 0.00 | 0.00 | 0.00 | 99 | 1023.0 |
| 20260504110705 | 6 | 263 | 0.0 | 0.0 | 0.00 | 0.00 | 0.00 | 99 | 1022.6 |
| 20260504110201 | 6 | 263 | 0.0 | 0.0 | 0.00 | 0.00 | 0.00 | 99 | 1022.8 |
| 20260504100119 | 7 | 263 | 0.0 | 0.0 | 0.00 | 0.00 | 0.00 | 99 | 1022.8 |
| 20260504081512 | 8 | 263 | 0.0 | 0.0 | 0.00 | 0.00 | 0.00 | 99 | 1022.3 |
| 20260504081008 | 8 | 263 | 0.0 | 0.0 | 0.00 | 0.00 | 0.00 | 99 | 1022.5 |
| 20260504080504 | 8 | 263 | 0.0 | 0.0 | 0.00 | 0.00 | 0.00 | 99 | 1022.6 |
| 20260504050317 | 10 | 262 | 0.0 | 0.0 | 0.00 | 0.00 | 0.00 | 93 | 1023.5 |
| 20260504045814 | 10 | 263 | 0.0 | 0.0 | 0.00 | 0.00 | 0.00 | 93 | 1023.7 |
| 20260504045315 | 10 | 263 | 0.0 | 0.0 | 0.00 | 0.00 | 0.00 | 93 | 1023.6 |
| 20260504044812 | 10 | 263 | 0.0 | 0.0 | 0.00 | 0.00 | 0.00 | 93 | 1023.9 |
| 20260504044309 | 10 | 263 | 0.0 | 0.0 | 0.00 | 0.00 | 0.00 | 93 | 1023.7 |
| 20260504043807 | 10 | 263 | 0.0 | 0.0 | 0.00 | 0.00 | 0.00 | 92 | 1023.8 |
| 20260504043303 | 10 | 263 | 0.0 | 0.0 | 0.00 | 0.00 | 0.00 | 92 | 1024.0 |
| 20260504042801 | 10 | 262 | 0.0 | 0.0 | 0.00 | 0.00 | 0.00 | 91 | 1023.7 |
| 20260504042257 | 10 | 262 | 0.0 | 0.0 | 0.00 | 0.00 | 0.00 | 91 | 1023.8 |
| 20260504041754 | 10 | 262 | 0.0 | 0.0 | 0.00 | 0.00 | 0.00 | 90 | 1023.7 |
| 20260504041250 | 10 | 263 | 0.0 | 0.0 | 0.00 | 0.00 | 0.00 | 89 | 1023.7 |
| 20260504040746 | 10 | 263 | 0.0 | 0.0 | 0.00 | 0.00 | 0.00 | 89 | 1023.9 |
| 20260504040244 | 11 | 263 | 0.0 | 0.0 | 0.00 | 0.00 | 0.00 | 89 | 1023.8 |
| 20260504035739 | 10 | 262 | 0.0 | 0.0 | 0.00 | 0.00 | 0.00 | 88 | 1023.9 |
| 20260504035237 | 11 | 262 | 0.0 | 0.0 | 0.00 | 0.00 | 0.00 | 87 | 1023.9 |
| 20260504034734 | 11 | 262 | 0.0 | 0.0 | 0.00 | 0.00 | 0.00 | 86 | 1024.2 |
| 20260504034231 | 11 | 262 | 0.0 | 0.0 | 0.00 | 0.00 | 0.00 | 86 | 1023.9 |
| 20260504033729 | 11 | 262 | 0.0 | 0.0 | 0.00 | 0.00 | 0.00 | 86 | 1024.2 |
| 20260504033226 | 11 | 262 | 0.0 | 0.0 | 0.00 | 0.00 | 0.00 | 85 | 1024.0 |
| 20260504032723 | 11 | 262 | 0.0 | 0.0 | 0.00 | 0.00 | 0.00 | 85 | 1024.2 |
| 20260504032220 | 11 | 262 | 0.0 | 0.0 | 0.00 | 0.00 | 0.00 | 84 | 1024.2 |
| 20260504031716 | 11 | 262 | 0.0 | 0.0 | 0.00 | 0.00 | 0.00 | 83 | 1024.1 |
| 20260504031214 | 11 | 262 | 0.0 | 0.0 | 0.00 | 0.00 | 0.00 | 83 | 1024.1 |
| 20260504030709 | 11 | 262 | 0.0 | 0.0 | 0.00 | 0.00 | 0.00 | 83 | 1024.0 |
| 20260504030207 | 12 | 262 | 0.0 | 0.0 | 0.00 | 0.00 | 0.00 | 82 | 1024.1 |
| 20260504025703 | 12 | 262 | 0.0 | 0.0 | 0.00 | 0.00 | 0.00 | 81 | 1023.8 |
| 20260504025200 | 12 | 262 | 0.0 | 0.0 | 0.00 | 0.00 | 0.00 | 81 | 1023.9 |
| 20260504024657 | 12 | 262 | 0.0 | 0.0 | 0.00 | 0.00 | 0.00 | 80 | 1024.1 |
| 20260504024154 | 12 | 262 | 0.0 | 0.0 | 0.00 | 0.00 | 0.00 | 79 | 1023.8 |
| 20260504023650 | 12 | 262 | 0.0 | 0.0 | 0.00 | 0.00 | 0.00 | 79 | 1023.8 |
| 20260504023146 | 12 | 262 | 0.0 | 0.0 | 0.00 | 0.00 | 0.00 | 79 | 1023.8 |
| 20260504022643 | 12 | 262 | 0.0 | 0.0 | 0.00 | 0.00 | 0.00 | 78 | 1023.6 |
| 20260504022139 | 13 | 262 | 0.0 | 0.0 | 0.00 | 0.00 | 0.00 | 76 | 1023.7 |
| 20260504021637 | 13 | 262 | 0.0 | 0.0 | 0.00 | 0.00 | 0.00 | 74 | 1023.5 |
| 20260504021133 | 13 | 264 | 0.0 | 0.0 | 0.00 | 0.00 | 0.00 | 74 | 1023.4 |
| 20260504020631 | 13 | 264 | 0.0 | 0.0 | 0.00 | 0.00 | 0.00 | 75 | 1023.9 |
| 20260504020126 | 13 | 264 | 0.0 | 0.0 | 0.00 | 0.00 | 0.00 | 75 | 1023.6 |
| 20260504015623 | 13 | 264 | 0.0 | 0.0 | 0.00 | 0.00 | 0.00 | 73 | 1023.5 |
| 20260504015120 | 13 | 264 | 0.0 | 0.0 | 0.00 | 0.00 | 0.00 | 72 | 1023.4 |
| 20260504014615 | 13 | 264 | 0.0 | 0.0 | 0.00 | 0.00 | 0.00 | 72 | 1023.5 |
| 20260504014113 | 14 | 264 | 0.0 | 0.0 | 0.00 | 0.00 | 0.00 | 72 | 1023.5 |
| 20260504013610 | 14 | 264 | 0.0 | 0.0 | 0.00 | 0.00 | 0.00 | 71 | 1023.3 |
| 20260504013107 | 15 | 264 | 0.0 | 0.0 | 0.00 | 0.00 | 0.00 | 69 | 1023.1 |
| 20260504012604 | 15 | 264 | 0.0 | 0.0 | 0.00 | 0.00 | 0.00 | 67 | 1023.3 |
| 20260504012102 | 15 | 264 | 0.0 | 0.0 | 0.00 | 0.00 | 0.00 | 68 | 1023.4 |
| 20260504011559 | 15 | 264 | 0.0 | 0.0 | 0.00 | 0.00 | 0.00 | 67 | 1023.4 |
| 20260504011055 | 15 | 264 | 0.0 | 0.0 | 0.00 | 0.00 | 0.00 | 67 | 1023.1 |
| 20260504010550 | 15 | 264 | 0.0 | 0.0 | 0.00 | 0.00 | 0.00 | 65 | 1022.9 |
| 20260504010047 | 15 | 264 | 0.0 | 0.0 | 0.00 | 0.00 | 0.00 | 65 | 1022.9 |
| 20260504005544 | 16 | 264 | 0.0 | 0.0 | 0.00 | 0.00 | 0.00 | 64 | 1022.8 |
| 20260504005041 | 16 | 264 | 0.0 | 0.0 | 0.00 | 0.00 | 0.00 | 62 | 1023.1 |
| 20260504004539 | 16 | 263 | 0.0 | 1.6 | 0.00 | 0.00 | 0.00 | 60 | 1023.1 |
| 20260504004036 | 16 | 263 | 0.0 | 0.0 | 0.00 | 0.00 | 0.00 | 59 | 1023.0 |
| 20260504003532 | 17 | 268 | 0.0 | 0.0 | 0.00 | 0.00 | 0.00 | 59 | 1022.8 |
| 20260504003029 | 17 | 268 | 0.0 | 0.0 | 0.00 | 0.00 | 0.00 | 57 | 1022.7 |
| 20260504002526 | 17 | 268 | 0.0 | 1.6 | 0.00 | 0.00 | 0.00 | 55 | 1022.9 |
| 20260504002023 | 18 | 288 | 0.0 | 1.6 | 0.00 | 0.00 | 0.00 | 54 | 1022.7 |
| 20260504001521 | 18 | 288 | 0.0 | 0.0 | 0.00 | 0.00 | 0.00 | 55 | 1022.9 |
| 20260504001011 | 18 | 290 | 0.0 | 0.0 | 0.00 | 0.00 | 0.00 | 52 | 1022.8 |
| 20260504000509 | 18 | 290 | 0.0 | 0.0 | 0.00 | 0.00 | 0.00 | 50 | 1022.6 |
| 20260504000006 | 19 | 291 | 0.0 | 0.0 | 0.00 | 0.00 | 0.00 | 49 | 1022.8 |
| 20260503235504 | 19 | 291 | 0.0 | 1.6 | 0.00 | 0.00 | 0.00 | 48 | 1022.7 |
| 20260503235001 | 19 | 290 | 0.0 | 0.0 | 0.00 | 0.00 | 0.00 | 46 | 1022.6 |
| 20260503234458 | 20 | 291 | 0.0 | 0.0 | 0.00 | 0.00 | 0.00 | 47 | 1022.7 |
| 20260503233956 | 20 | 288 | 1.6 | 1.6 | 0.00 | 0.00 | 0.00 | 46 | 1022.5 |
| 20260503233452 | 20 | 289 | 0.0 | 0.0 | 0.00 | 0.00 | 0.00 | 47 | 1022.5 |
| 20260503232949 | 20 | 225 | 1.6 | 1.6 | 0.00 | 0.00 | 0.00 | 45 | 1022.7 |
| 20260503232446 | 20 | 283 | 0.0 | 0.0 | 0.00 | 0.00 | 0.00 | 47 | 1022.8 |
| 20260503231944 | 20 | 289 | 0.0 | 1.6 | 0.00 | 0.00 | 0.00 | 44 | 1022.7 |
| 20260503231441 | 20 | 299 | 0.0 | 0.0 | 0.00 | 0.00 | 0.00 | 44 | 1022.8 |
| 20260503230937 | 20 | 316 | 0.0 | 1.6 | 0.00 | 0.00 | 0.00 | 45 | 1022.8 |
| 20260503230434 | 20 | 289 | 1.6 | 3.2 | 0.00 | 0.00 | 0.00 | 45 | 1022.6 |
| 20260503225931 | 21 | 289 | 1.6 | 1.6 | 0.00 | 0.00 | 0.00 | 44 | 1022.7 |
| 20260503225428 | 21 | 256 | 4.8 | 4.8 | 0.00 | 0.00 | 0.00 | 41 | 1022.8 |
| 20260503224924 | 21 | 315 | 1.6 | 1.6 | 0.00 | 0.00 | 0.00 | 45 | 1022.9 |
| 20260503224421 | 21 | 270 | 3.2 | 3.2 | 0.00 | 0.00 | 0.00 | 42 | 1023.0 |
| 20260503223919 | 21 | 190 | 1.6 | 1.6 | 0.00 | 0.00 | 0.00 | 42 | 1022.9 |
| 20260503223416 | 21 | 292 | 4.8 | 4.8 | 0.00 | 0.00 | 0.00 | 41 | 1022.5 |
| 20260503222917 | 21 | 303 | 1.6 | 3.2 | 0.00 | 0.00 | 0.00 | 42 | 1022.8 |
| 20260503222415 | 21 | 304 | 1.6 | 3.2 | 0.00 | 0.00 | 0.00 | 40 | 1022.9 |
| 20260503221914 | 21 | 244 | 4.8 | 4.8 | 0.00 | 0.00 | 0.00 | 40 | 1023.0 |
| 20260503221412 | 21 | 270 | 3.2 | 3.2 | 0.00 | 0.00 | 0.00 | 40 | 1023.1 |
| 20260503220908 | 21 | 332 | 1.6 | 1.6 | 0.00 | 0.00 | 0.00 | 40 | 1023.0 |
| 20260503220404 | 21 | 239 | 3.2 | 4.8 | 0.00 | 0.00 | 0.00 | 38 | 1023.0 |